Tracking 30070 objects as of 15-Jan-2025
HD Live streaming from Space Station
objects crossing your sky now

SL-12 R/B(2)

Track SL-12 R/B(2) now!


NORAD ID: 28256
Int'l Code: 2004-010F
Perigee: 35,722.3 km
Apogee: 35,938.7 km
Inclination: 13.1 °
Period: 1,438.0 minutes
Semi major axis: 42201 km
RCS: 0.003 m2 (small)
Launch date: March 27, 2004
Source: Commonwealth of Independent States (former USSR) (CIS)
Launch site: TYURATAM MISSILE AND SPACE COMPLEX (TTMTR)

Note: This is a ROCKET BODY
Your satellite tracking list
Your tracking list is empty




NASA's NSSDC Master Catalog

Two Line Element Set (TLE):
1 28256U 04010F   25014.28314333 -.00000119  00000-0  00000-0 0  9999
2 28256  13.1084  25.0249 0025631 359.0537 356.8130  1.00140826 75463
Source of the keplerian elements: AFSPC